[[{"header":{"parameterUnit":"m.s-1","parameterCategory":1,"la1":30.2991,"la2":30.254,"lo1":-89.0895,"lo2":-89.0444,"dy":0.0017,"dx":0.0017,"nx":28,"ny":28,"refTime":"2024-10-12T21:00:00:Z","depth":0,"parameterNumber":2,"parameterNumberName":"U-component_of_WINDS"},"data":[0,0,0,0,0,0,0,0,0,0,0,0,0,0,0,0,0,0,0,0,0,0,0,0,0,0,0,0,0,0,0,0,0,0,0,0,0,0,0,0,0,0,0,0,0,0,0,0,0,0,0,0,0,0,0,0,0,0,3.1341,3.1343,0,3.1507,3.1509,3.1511,3.1478,3.1475,3.1472,3.1469,3.1642,3.1649,3.1657,0,0,0,0,0,0,0,0,0,0,0,0,0,3.0996,3.1003,3.1341,3.1343,3.1345,3.1507,3.1509,3.1512,3.1478,3.1475,3.1471,3.1467,3.164,3.1648,3.1657,0,0,0,0,0,0,0,0,0,0,0,0,0,3.1153,3.1005,3.1341,3.1348,3.135,3.1507,3.1509,3.1512,3.1479,3.1475,3.147,3.1466,3.1637,3.1647,3.1658,3.1819,0,0,3.1693,3.1697,0,0,0,0,0,0,0,0,3.1144,3.1165,3.1345,3.1348,3.1351,3.1467,3.1451,3.1615,3.148,3.143,3.1469,3.1464,3.1588,3.1603,3.1644,3.1827,3.1834,3.1694,3.17,3.1705,3.1708,0,0,0,0,0,0,0,3.1133,3.1158,3.1407,3.1348,3.1351,3.1343,3.1361,3.1482,3.1533,3.1434,3.1432,3.1452,3.1588,3.1633,3.1648,3.1837,3.1693,3.1703,3.171,3.1714,3.2157,3.2162,0,0,0,0,0,0,3.1119,3.1149,3.1402,3.1412,3.1234,3.1353,3.1373,3.1434,3.1531,3.1542,3.1456,3.145,3.1616,3.1635,3.1654,3.1846,3.1705,3.1715,3.1722,3.2152,3.2158,3.2163,0,0,0,0,0,0,3.1112,3.1142,3.1395,3.128,3.1312,3.1364,3.1434,3.144,3.1485,3.1548,3.1557,3.1492,3.1613,3.1638,3.1777,3.1851,3.1721,3.1731,3.2146,3.2154,3.2161,3.2233,0,0,0,0,0,0,3.1102,3.114,3.1201,3.1282,3.1318,3.1516,3.1438,3.1447,3.1504,3.1498,3.1584,3.1594,3.1612,3.1761,3.1788,3.1864,3.1739,3.2139,3.2149,3.2158,3.2224,3.2242,3.2257,0,0,0,0,0,3.109,3.1216,3.1204,3.1235,3.1395,3.152,3.1541,3.1558,3.151,3.1572,3.1612,3.1591,3.1839,3.1775,3.1806,3.1887,3.2135,3.2147,3.2158,3.2216,3.2238,3.2257,0,0,0,0,0,0,3.1144,3.1227,3.1215,3.137,3.1438,3.1514,3.1593,3.1581,3.1664,3.1655,3.1674,3.1693,3.1835,3.1875,3.1802,3.2046,3.198,3.1998,3.2014,3.2036,3.2052,3.2039,3.1749,0,0,0,0,0,3.1174,3.1267,3.1335,3.1465,3.15,3.1541,3.1595,3.1602,3.1674,3.1703,3.1753,3.1824,3.1917,3.1979,3.2068,3.2229,3.2247,3.23,3.2316,3.233,3.2345,3.2432,3.2455,3.2201,3.2201,3.2201,0,0,3.1237,3.1293,3.1352,3.1478,3.1531,3.1627,3.1565,3.1671,3.1742,3.1719,3.1853,3.1892,3.1972,3.2122,3.2191,3.216,3.2419,3.2344,3.2354,3.2363,3.2446,3.247,3.2491,3.2209,3.2207,3.2206,0,0,3.1401,3.1453,3.1567,3.1621,3.1702,3.1728,3.1755,3.1833,3.1857,3.1992,3.1976,3.2062,3.2223,3.228,3.233,3.2513,3.2497,3.2542,3.2628,3.2712,3.2732,3.275,3.2814,3.2837,3.2557,3.2557,3.2557,0,3.1469,3.1613,3.1627,3.1733,3.1789,3.1771,3.1885,3.1938,3.2045,3.2083,3.2047,3.2247,3.23,3.2462,3.2506,3.2548,3.2579,3.2532,3.2728,3.2746,3.2763,3.2824,3.2849,3.2562,3.2561,3.2561,3.256,0,3.1692,3.1793,3.1875,3.1976,3.2041,3.2151,3.2182,3.2246,3.2246,3.2276,3.2412,3.2474,3.2575,3.2614,3.2618,3.2777,3.2755,3.2723,3.2658,3.2792,3.285,3.2873,3.2569,3.2567,3.2566,3.2564,0,0,3.1896,3.2002,3.2032,3.2077,3.2164,3.2242,3.2351,3.2448,3.2502,3.2576,3.2667,3.2803,3.2773,3.283,3.2839,3.2912,3.3051,3.2871,3.2873,3.2902,3.323,3.3252,3.3279,3.3041,3.3045,3.3049,3.3222,0,3.2067,3.2258,3.2273,3.2445,3.2537,3.252,3.2615,3.2678,3.2709,3.2791,3.2825,3.292,3.2874,3.2908,3.298,3.3019,3.3117,3.3007,3.3126,3.313,3.3106,3.331,3.3335,3.3496,3.3245,3.3249,3.3252,0,3.2293,3.2371,3.2552,3.2624,3.2663,3.2748,3.2837,3.2916,3.2987,3.3004,3.3066,3.3064,3.3176,3.3106,3.326,3.3184,3.3233,3.326,3.3266,3.3278,3.3199,3.3326,3.3548,3.3571,3.3288,3.3285,3.3282,0,3.2422,3.2573,3.27,3.2739,3.2826,3.2886,3.2925,3.2992,3.3049,3.3127,3.3164,3.3255,3.3305,3.3375,3.3397,3.3344,3.355,3.3482,3.3566,3.3566,3.361,3.3607,3.3842,3.3643,3.3643,3.3642,3.3642,0,3.2611,3.2722,3.2758,3.2837,3.296,3.2976,3.3098,3.3134,3.3193,3.3278,3.3269,3.3349,3.3374,3.3458,3.3477,3.36,3.3623,3.3639,3.3643,3.364,3.3638,3.3672,3.3661,3.3649,3.3647,3.3646,3.3645,0,3.2776,3.2805,3.2942,3.3013,3.3033,3.3121,3.3182,3.3257,3.3284,3.3392,3.3418,3.3462,3.356,3.3589,3.3709,3.3721,3.3865,3.3859,3.3841,3.3841,3.3923,3.3914,3.4188,3.4224,3.4002,3.4004,3.4006,0,3.2895,3.2979,3.3058,3.3113,3.3155,3.3245,3.3302,3.332,3.338,3.3466,3.3531,3.3628,3.3706,3.3864,3.3907,3.3998,3.3993,3.4082,3.4007,3.4,3.3993,3.3988,3.3996,3.4097,3.4099,3.4101,3.4103,0,3.3101,3.3111,3.3193,3.3281,3.3349,3.3419,3.3486,3.3532,3.356,3.3628,3.3727,3.3788,3.3908,3.4004,3.4095,3.4136,3.4124,3.4126,3.415,3.4148,3.4133,3.4141,3.3879,3.412,3.4118,3.4117,3.4116,3.4115,3.3247,3.332,3.3386,3.3478,3.353,3.3592,3.3666,3.3702,3.3785,3.3883,3.3889,3.3996,3.4064,3.4185,3.423,3.4314,3.4288,3.4324,3.4333,3.4341,3.4347,3.412,3.4331,3.4331,3.4331,3.433,3.433,0,3.3452,3.3493,3.3577,3.367,3.3742,3.3723,3.3796,3.3857,3.3952,3.4015,3.4091,3.4205,3.4297,3.4347,3.4439,3.4497,3.4493,3.452,3.4516,3.4525,3.4366,3.4335,3.4521,3.4521,3.4521,3.4521,3.4521,3.4521,3.3567,3.369,3.3707,3.3855,3.3896,3.4,3.4043,3.41,3.4151,3.4277,3.4354,3.4384,3.4442,3.4538,3.4621,3.4633,3.4667,3.4697,3.4706,3.4556,3.4537,3.4518,3.4489,3.4704,3.4705,3.4858,3.486,3.4861]},{"header":{"parameterUnit":"m.s-1","parameterCategory":1,"la1":30.2991,"la2":30.254,"lo1":-89.0895,"lo2":-89.0444,"dy":0.0017,"dx":0.0017,"nx":28,"ny":28,"refTime":"2024-10-12T21:00:00:Z","depth":0,"parameterNumber":3,"parameterNumberName":"V-component_of_WINDS"},"data":[0,0,0,0,0,0,0,0,0,0,0,0,0,0,0,0,0,0,0,0,0,0,0,0,0,0,0,0,0,0,0,0,0,0,0,0,0,0,0,0,0,0,0,0,0,0,0,0,0,0,0,0,0,0,0,0,0,0,4.0553,4.0554,0,4.0641,4.0642,4.0643,4.0589,4.0587,4.0584,4.0582,4.0666,4.067,4.0675,0,0,0,0,0,0,0,0,0,0,0,0,0,4.0332,4.0336,4.0553,4.0554,4.0555,4.0641,4.0642,4.0643,4.059,4.0586,4.0583,4.058,4.0664,4.067,4.0675,0,0,0,0,0,0,0,0,0,0,0,0,0,4.0424,4.0337,4.0553,4.0539,4.0538,4.064,4.0642,4.0643,4.059,4.0586,4.0583,4.0579,4.0662,4.0669,4.0676,4.0794,0,0,4.0697,4.07,0,0,0,0,0,0,0,0,4.0419,4.0432,4.054,4.054,4.054,4.06,4.0594,4.0694,4.0591,4.057,4.0582,4.0577,4.0647,4.0654,4.0679,4.0798,4.0802,4.0697,4.0702,4.0705,4.0707,0,0,0,0,0,0,0,4.0413,4.0428,4.0587,4.0541,4.0541,4.0526,4.0535,4.0613,4.0628,4.0572,4.0568,4.058,4.0646,4.0673,4.0681,4.0803,4.0697,4.0703,4.0708,4.071,4.1021,4.1025,0,0,0,0,0,0,4.0408,4.0423,4.0584,4.059,4.0469,4.0533,4.0543,4.0584,4.0627,4.0631,4.0583,4.0577,4.0663,4.0673,4.0683,4.0824,4.0705,4.0711,4.0715,4.1017,4.1022,4.1027,0,0,0,0,0,0,4.0404,4.0423,4.0581,4.0506,4.0525,4.0541,4.0588,4.0588,4.0615,4.0636,4.0638,4.0608,4.066,4.0674,4.0767,4.0826,4.0714,4.072,4.1012,4.1019,4.1024,4.1106,0,0,0,0,0,0,4.0398,4.0422,4.0469,4.0507,4.0529,4.0666,4.0592,4.0593,4.0628,4.0621,4.066,4.0663,4.0658,4.0757,4.0774,4.0833,4.0726,4.1007,4.1015,4.1022,4.1098,4.1114,4.1128,0,0,0,0,0,4.039,4.0487,4.0472,4.0491,4.0588,4.0669,4.0681,4.0676,4.0633,4.0679,4.0692,4.0661,4.0817,4.0767,4.0786,4.0848,4.1003,4.1013,4.1022,4.1091,4.1111,4.1127,0,0,0,0,0,0,4.0454,4.0492,4.0475,4.0588,4.0626,4.066,4.0718,4.0697,4.0746,4.0737,4.0727,4.0736,4.0833,4.085,4.0794,4.0964,4.0903,4.0916,4.0949,4.0968,4.0983,4.0976,4.0732,0,0,0,0,0,4.0481,4.0546,4.0575,4.0672,4.0692,4.0702,4.0737,4.073,4.0767,4.0782,4.0802,4.0838,4.0895,4.0932,4.0986,4.11,4.1106,4.1152,4.1167,4.1179,4.119,4.125,4.127,4.1057,4.1057,4.1057,0,0,4.0538,4.0567,4.0608,4.0686,4.0714,4.0779,4.0716,4.0787,4.0834,4.0793,4.0882,4.0898,4.0937,4.1041,4.1088,4.1058,4.125,4.1191,4.12,4.1205,4.1261,4.1282,4.1299,4.1063,4.1062,4.1061,0,0,4.0675,4.0705,4.0788,4.0818,4.0862,4.0868,4.0888,4.0925,4.0934,4.1025,4.0994,4.1049,4.1147,4.1176,4.1203,4.135,4.1323,4.1367,4.1445,4.1503,4.152,4.1535,4.1585,4.1604,4.1379,4.1379,4.1379,0,4.074,4.0838,4.0833,4.0907,4.0941,4.0908,4.099,4.1019,4.1077,4.11,4.1066,4.1189,4.1213,4.1322,4.1358,4.1382,4.1402,4.1363,4.1518,4.1533,4.1547,4.1595,4.1614,4.1384,4.1384,4.1383,4.1383,0,4.0915,4.0983,4.1045,4.1104,4.1145,4.1223,4.1227,4.1268,4.1257,4.1266,4.1356,4.1384,4.1442,4.1467,4.1457,4.1575,4.1555,4.152,4.1459,4.1572,4.1617,4.1636,4.1391,4.139,4.1388,4.1387,0,0,4.1094,4.115,4.1172,4.1198,4.1244,4.1296,4.1371,4.1429,4.1464,4.1505,4.1566,4.165,4.1618,4.1649,4.1641,4.1692,4.1804,4.1651,4.1652,4.1677,4.1934,4.1959,4.1981,4.1787,4.1791,4.1793,4.193,0,4.1233,4.1367,4.1364,4.1487,4.1549,4.1518,4.1583,4.1617,4.1627,4.1678,4.1688,4.1747,4.1701,4.172,4.1769,4.178,4.1856,4.1771,4.1842,4.1844,4.1832,4.2005,4.2032,4.216,4.1948,4.1951,4.1953,0,4.1413,4.1462,4.1592,4.1628,4.1653,4.1713,4.1765,4.1816,4.1852,4.1855,4.189,4.1874,4.1947,4.1884,4.1984,4.1926,4.1955,4.1965,4.1969,4.1975,4.1905,4.2013,4.22,4.2219,4.1981,4.1979,4.1977,0,4.1529,4.1627,4.1718,4.1741,4.1785,4.1827,4.1847,4.188,4.1915,4.1959,4.1981,4.2033,4.2062,4.2101,4.2098,4.2053,4.2199,4.2136,4.2201,4.2202,4.2233,4.2231,4.2426,4.2253,4.2253,4.2253,4.2252,0,4.1684,4.1764,4.177,4.1826,4.1914,4.1908,4.1995,4.201,4.204,4.2096,4.2071,4.2123,4.2117,4.2169,4.2166,4.2248,4.2261,4.2264,4.2262,4.2266,4.2266,4.2284,4.2274,4.2258,4.2257,4.2256,4.2255,0,4.1828,4.1836,4.1932,4.1966,4.1977,4.204,4.2068,4.2119,4.2127,4.2197,4.2213,4.2224,4.2284,4.2285,4.2353,4.2351,4.2451,4.244,4.244,4.2437,4.2502,4.2495,4.2715,4.2742,4.2553,4.2555,4.2556,0,4.1926,4.1988,4.2029,4.2065,4.2088,4.2148,4.2183,4.2179,4.2216,4.2262,4.2307,4.2365,4.2411,4.2508,4.252,4.2571,4.256,4.2634,4.2568,4.2569,4.2559,4.2556,4.2561,4.2646,4.2648,4.265,4.2651,0,4.2098,4.2099,4.2153,4.2207,4.2251,4.2293,4.2332,4.2363,4.2363,4.2406,4.2468,4.2504,4.2573,4.263,4.268,4.2697,4.2674,4.2672,4.269,4.2693,4.269,4.2691,4.2473,4.2667,4.2665,4.2664,4.2663,4.2663,4.2221,4.2274,4.2311,4.2371,4.24,4.2437,4.2487,4.2501,4.2553,4.2611,4.2604,4.2673,4.2705,4.277,4.2792,4.2843,4.2817,4.2843,4.2849,4.2856,4.2862,4.2683,4.2852,4.2852,4.2851,4.2851,4.2851,0,4.2391,4.2413,4.2469,4.2525,4.2572,4.2548,4.2589,4.2629,4.269,4.2724,4.277,4.284,4.2894,4.2911,4.2964,4.3001,4.2992,4.3015,4.3012,4.3016,4.2883,4.2862,4.3022,4.3022,4.3022,4.3022,4.3022,4.3022,4.2485,4.2572,4.2577,4.2678,4.2698,4.2767,4.2792,4.2825,4.2852,4.2932,4.2978,4.2989,4.3016,4.3069,4.3118,4.3121,4.3141,4.3168,4.3167,4.3042,4.3025,4.3009,4.2989,4.3173,4.3173,4.3295,4.3296,4.3297]}]]